When you browse on this site, cookies collect data to enhance your experience and personalize the content and advertising you see.
Visit our Privacy Policy to learn more. By continuing to use the site, you agree to this use of cookies and data.
  • In Portugal
  • List of Countries
  • For 7 days
  • Water Temperature
  • Weather Map
  • Weather Widgets
  • user-avatar
    Login

    Hourly Weather Batina

    Today, 16 October, Wednesday

    Time Temperature Precipitation Wind Pressure Humidity
    00:00 +16°C° 0 mm 1 mps 674 mmHg 84%
    01:00 +15°C° 0 mm 1 mps 673 mmHg 83%
    02:00 +15°C° 0 mm 1 mps 673 mmHg 83%
    03:00 +15°C° 0 mm 1 mps 673 mmHg 83%
    04:00 +14°C° 0 mm 1 mps 672 mmHg 82%
    05:00 +13°C° 0 mm 0 mps 672 mmHg 82%
    06:00 +13°C° 0 mm 0 mps 672 mmHg 81%
    07:00 +16°C° 0 mm 1 mps 673 mmHg 72%
    08:00 +17°C° 0 mm 2 mps 674 mmHg 62%
    09:00 +19°C° 0 mm 2 mps 675 mmHg 53%
    10:00 +20°C° 0 mm 3 mps 675 mmHg 49%
    11:00 +21°C° 0 mm 4 mps 674 mmHg 46%
    12:00 +22°C° 0 mm 5 mps 674 mmHg 43%
    13:00 +22°C° 0 mm 5 mps 674 mmHg 43%
    14:00 +22°C° 0 mm 5 mps 674 mmHg 44%
    15:00 +22°C° 0 mm 4 mps 674 mmHg 44%
    16:00 +21°C° 0 mm 4 mps 673 mmHg 49%
    17:00 +20°C° 0 mm 3 mps 673 mmHg 54%
    18:00 +19°C° 0 mm 2 mps 673 mmHg 59%
    19:00 +18°C° 0 mm 2 mps 673 mmHg 62%
    20:00 +18°C° 0 mm 2 mps 673 mmHg 65%
    21:00 +18°C° 0 mm 1 mps 673 mmHg 68%
    22:00 +18°C° 0 mm 1 mps 673 mmHg 70%
    23:00 +18°C° 0 mm 1 mps 673 mmHg 72%

    Tomorrow, 17 October, Thursday

    Time Temperature Precipitation Wind Pressure Humidity
    00:00 +16°C° 0 mm 1 mps 673 mmHg 75%
    01:00 +16°C° 0 mm 1 mps 673 mmHg 75%
    02:00 +16°C° 0 mm 1 mps 672 mmHg 76%
    03:00 +16°C° 0 mm 1 mps 672 mmHg 77%
    04:00 +16°C° 0 mm 1 mps 672 mmHg 77%
    05:00 +15°C° 0 mm 1 mps 672 mmHg 78%
    06:00 +15°C° 0 mm 1 mps 672 mmHg 78%
    07:00 +17°C° 0 mm 2 mps 673 mmHg 71%
    08:00 +19°C° 0 mm 3 mps 674 mmHg 63%
    09:00 +21°C° 0 mm 3 mps 674 mmHg 56%
    10:00 +21°C° 0 mm 4 mps 674 mmHg 52%
    11:00 +22°C° 0 mm 5 mps 674 mmHg 49%
    12:00 +23°C° 0 mm 5 mps 674 mmHg 46%
    13:00 +23°C° 0 mm 5 mps 674 mmHg 47%
    14:00 +23°C° 0 mm 5 mps 674 mmHg 48%
    15:00 +23°C° 0 mm 5 mps 673 mmHg 49%
    16:00 +21°C° 0.1 mm 4 mps 673 mmHg 55%
    17:00 +20°C° 0.1 mm 3 mps 673 mmHg 62%
    18:00 +19°C° 0.1 mm 2 mps 672 mmHg 68%
    19:00 +19°C° 0 mm 2 mps 673 mmHg 69%
    20:00 +19°C° 0 mm 2 mps 673 mmHg 70%
    21:00 +19°C° 0 mm 1 mps 673 mmHg 71%
    22:00 +19°C° 0 mm 1 mps 673 mmHg 70%
    23:00 +19°C° 0 mm 1 mps 673 mmHg 69%

    Day after tomorrow, 18 October, Friday

    Time Temperature Precipitation Wind Pressure Humidity
    00:00 +19°C° 0 mm 1 mps 672 mmHg 68%
    01:00 +19°C° 0 mm 1 mps 672 mmHg 68%
    02:00 +18°C° 0 mm 2 mps 672 mmHg 69%
    03:00 +17°C° 0 mm 2 mps 672 mmHg 70%
    04:00 +17°C° 0 mm 2 mps 672 mmHg 72%
    05:00 +17°C° 0 mm 2 mps 672 mmHg 74%
    06:00 +16°C° 0 mm 2 mps 672 mmHg 76%
    07:00 +18°C° 0 mm 2 mps 672 mmHg 67%
    08:00 +20°C° 0 mm 2 mps 673 mmHg 59%
    09:00 +21°C° 0 mm 2 mps 674 mmHg 51%
    10:00 +23°C° 0.1 mm 2 mps 674 mmHg 47%
    11:00 +24°C° 0.1 mm 3 mps 674 mmHg 44%
    12:00 +25°C° 0.1 mm 3 mps 674 mmHg 40%
    13:00 +25°C° 0.1 mm 3 mps 673 mmHg 40%
    14:00 +25°C° 0.1 mm 4 mps 673 mmHg 40%
    15:00 +25°C° 0.1 mm 4 mps 672 mmHg 40%
    16:00 +24°C° 0.1 mm 3 mps 672 mmHg 45%
    17:00 +22°C° 0.1 mm 3 mps 672 mmHg 49%
    18:00 +20°C° 0.1 mm 2 mps 672 mmHg 54%
    19:00 +20°C° 0 mm 2 mps 672 mmHg 57%
    20:00 +19°C° 0 mm 2 mps 672 mmHg 59%
    21:00 +20°C° 0 mm 1 mps 672 mmHg 61%
    22:00 +19°C° 0 mm 1 mps 672 mmHg 62%
    23:00 +19°C° 0 mm 1 mps 672 mmHg 63%

    19 October, Saturday

    Time Temperature Precipitation Wind Pressure Humidity
    00:00 +19°C° 0 mm 1 mps 671 mmHg 64%
    01:00 +17°C° 0 mm 2 mps 671 mmHg 65%
    02:00 +17°C° 0 mm 2 mps 671 mmHg 66%
    03:00 +17°C° 0 mm 2 mps 670 mmHg 68%
    04:00 +17°C° 0 mm 2 mps 670 mmHg 68%
    05:00 +17°C° 0 mm 2 mps 670 mmHg 68%
    06:00 +16°C° 0 mm 2 mps 670 mmHg 68%
    07:00 +18°C° 0 mm 3 mps 671 mmHg 60%
    08:00 +20°C° 0 mm 3 mps 671 mmHg 52%
    09:00 +22°C° 0 mm 4 mps 672 mmHg 45%
    10:00 +23°C° 0 mm 5 mps 672 mmHg 42%
    11:00 +25°C° 0 mm 5 mps 672 mmHg 39%
    12:00 +26°C° 0 mm 6 mps 672 mmHg 36%
    13:00 +24°C° 0 mm 6 mps 671 mmHg 36%
    14:00 +25°C° 0 mm 5 mps 671 mmHg 37%
    15:00 +25°C° 0 mm 5 mps 671 mmHg 37%
    16:00 +23°C° 0 mm 4 mps 671 mmHg 42%
    17:00 +21°C° 0 mm 3 mps 670 mmHg 47%
    18:00 +20°C° 0 mm 2 mps 670 mmHg 51%
    19:00 +20°C° 0 mm 2 mps 670 mmHg 53%
    20:00 +19°C° 0 mm 2 mps 671 mmHg 54%
    21:00 +19°C° 0 mm 2 mps 671 mmHg 56%
    22:00 +19°C° 0 mm 2 mps 671 mmHg 57%
    23:00 +18°C° 0 mm 2 mps 671 mmHg 57%

    20 October, Sunday

    Time Temperature Precipitation Wind Pressure Humidity
    00:00 +18°C° 0 mm 2 mps 671 mmHg 58%
    01:00 +18°C° 0 mm 2 mps 670 mmHg 59%
    02:00 +17°C° 0 mm 2 mps 670 mmHg 61%
    03:00 +17°C° 0 mm 2 mps 670 mmHg 62%
    04:00 +17°C° 0 mm 2 mps 670 mmHg 64%
    05:00 +16°C° 0 mm 2 mps 670 mmHg 65%
    06:00 +16°C° 0 mm 2 mps 670 mmHg 67%
    07:00 +18°C° 0 mm 2 mps 671 mmHg 59%
    08:00 +20°C° 0 mm 2 mps 672 mmHg 51%
    09:00 +22°C° 0 mm 3 mps 672 mmHg 44%
    10:00 +24°C° 0 mm 3 mps 672 mmHg 41%
    11:00 +25°C° 0 mm 3 mps 672 mmHg 38%
    12:00 +25°C° 0 mm 3 mps 672 mmHg 35%
    13:00 +25°C° 0 mm 4 mps 672 mmHg 35%
    14:00 +25°C° 0 mm 4 mps 671 mmHg 35%
    15:00 +25°C° 0 mm 4 mps 671 mmHg 35%
    16:00 +24°C° 0 mm 3 mps 671 mmHg 40%
    17:00 +21°C° 0 mm 3 mps 670 mmHg 45%
    18:00 +20°C° 0 mm 2 mps 670 mmHg 50%
    19:00 +19°C° 0 mm 2 mps 670 mmHg 52%
    20:00 +19°C° 0 mm 2 mps 670 mmHg 54%
    21:00 +18°C° 0 mm 2 mps 670 mmHg 56%
    22:00 +18°C° 0 mm 2 mps 670 mmHg 55%
    23:00 +18°C° 0 mm 3 mps 670 mmHg 54%

    21 October, Monday

    Time Temperature Precipitation Wind Pressure Humidity
    00:00 +18°C° 0 mm 3 mps 670 mmHg 54%
    01:00 +17°C° 0 mm 3 mps 669 mmHg 56%
    02:00 +17°C° 0 mm 3 mps 669 mmHg 59%
    03:00 +16°C° 0 mm 3 mps 669 mmHg 62%
    04:00 +16°C° 0 mm 2 mps 669 mmHg 63%
    05:00 +16°C° 0 mm 2 mps 669 mmHg 64%
    06:00 +16°C° 0 mm 2 mps 669 mmHg 65%
    07:00 +18°C° 0 mm 3 mps 670 mmHg 57%
    08:00 +20°C° 0 mm 4 mps 671 mmHg 49%
    09:00 +22°C° 0 mm 4 mps 671 mmHg 41%
    10:00 +22°C° 0 mm 4 mps 671 mmHg 43%
    11:00 +22°C° 0 mm 3 mps 671 mmHg 45%
    12:00 +21°C° 0 mm 3 mps 671 mmHg 47%
    13:00 +21°C° 0.1 mm 3 mps 670 mmHg 49%
    14:00 +21°C° 0.1 mm 3 mps 670 mmHg 51%
    15:00 +21°C° 0.1 mm 3 mps 669 mmHg 53%
    16:00 +20°C° 0.6 mm 2 mps 669 mmHg 61%
    17:00 +19°C° 0.6 mm 1 mps 669 mmHg 70%
    18:00 +18°C° 0.6 mm 1 mps 669 mmHg 78%
    19:00 +18°C° 0.7 mm 1 mps 669 mmHg 80%
    20:00 +16°C° 0.7 mm 1 mps 669 mmHg 83%
    21:00 +16°C° 0.7 mm 1 mps 669 mmHg 85%
    22:00 +16°C° 0.3 mm 1 mps 669 mmHg 85%
    23:00 +16°C° 0.3 mm 1 mps 669 mmHg 85%
    Show more